TimeMST,TemperatureF,Dew PointF,Humidity,Sea Level PressureIn,VisibilityMPH,Wind Direction,Wind SpeedMPH,Gust SpeedMPH,PrecipitationIn,Events,Conditions,WindDirDegrees,DateUTC
12:12 AM,32.0,26.6,80,29.74,10.0,WNW,8.1,-,N/A,,Mostly Cloudy,300,2014-02-28 07:12:00
12:32 AM,32.0,24.8,75,29.75,10.0,NNW,3.5,-,N/A,,Scattered Clouds,340,2014-02-28 07:32:00
12:52 AM,32.0,23.0,69,29.76,10.0,NW,6.9,-,N/A,,Clear,320,2014-02-28 07:52:00
1:12 AM,33.8,23.0,65,29.76,10.0,NW,15.0,26.5,N/A,,Clear,320,2014-02-28 08:12:00
1:32 AM,33.8,23.0,65,29.76,10.0,WNW,5.8,20.7,N/A,,Mostly Cloudy,300,2014-02-28 08:32:00
1:52 AM,33.8,23.0,65,29.78,10.0,NW,11.5,25.3,N/A,,Mostly Cloudy,310,2014-02-28 08:52:00
2:12 AM,33.8,24.8,70,29.77,10.0,West,13.8,19.6,N/A,,Overcast,270,2014-02-28 09:12:00
2:31 AM,32.0,23.0,69,29.76,10.0,Calm,Calm,-,N/A,,Scattered Clouds,0,2014-02-28 09:31:00
2:51 AM,32.0,23.0,69,29.75,10.0,NW,18.4,26.5,N/A,,Clear,320,2014-02-28 09:51:00
3:12 AM,33.8,21.2,60,29.75,10.0,NW,26.5,33.4,N/A,,Clear,320,2014-02-28 10:12:00
3:32 AM,32.0,21.2,64,29.74,10.0,NNW,28.8,36.8,N/A,,Clear,330,2014-02-28 10:32:00
3:52 AM,32.0,21.2,64,29.75,10.0,NW,29.9,35.7,N/A,,Clear,320,2014-02-28 10:52:00
4:12 AM,32.0,21.2,64,29.75,10.0,NW,33.4,41.4,N/A,,Clear,310,2014-02-28 11:12:00
4:32 AM,32.0,21.2,64,29.76,10.0,NW,23.0,34.5,N/A,,Clear,310,2014-02-28 11:32:00
4:52 AM,32.0,21.2,64,29.77,10.0,NW,28.8,35.7,N/A,,Clear,320,2014-02-28 11:52:00
5:12 AM,32.0,21.2,64,29.78,10.0,NW,31.1,39.1,N/A,,Clear,320,2014-02-28 12:12:00
5:32 AM,32.0,21.2,64,29.81,10.0,NW,20.7,34.5,N/A,,Clear,320,2014-02-28 12:32:00
5:52 AM,30.2,21.2,69,29.83,10.0,NW,19.6,-,N/A,,Clear,320,2014-02-28 12:52:00
6:12 AM,32.0,21.2,64,29.85,10.0,NW,18.4,-,N/A,,Clear,320,2014-02-28 13:12:00
6:32 AM,32.0,21.2,64,29.86,10.0,NW,18.4,-,N/A,,Clear,320,2014-02-28 13:32:00
6:52 AM,30.2,21.2,69,29.86,10.0,NW,19.6,-,N/A,,Clear,320,2014-02-28 13:52:00
7:12 AM,30.2,21.2,69,29.87,10.0,NW,16.1,-,N/A,,Clear,320,2014-02-28 14:12:00
7:32 AM,32.0,21.2,64,29.88,10.0,NNW,20.7,29.9,N/A,,Clear,330,2014-02-28 14:32:00
7:51 AM,35.6,21.2,56,29.89,10.0,NW,20.7,27.6,N/A,,Clear,320,2014-02-28 14:51:00
8:12 AM,35.6,21.2,56,29.90,10.0,NW,19.6,25.3,N/A,,Clear,310,2014-02-28 15:12:00
8:31 AM,37.4,21.2,52,29.90,10.0,NW,21.9,28.8,N/A,,Clear,320,2014-02-28 15:31:00
8:52 AM,37.4,23.0,56,29.90,10.0,NW,21.9,32.2,N/A,,Clear,310,2014-02-28 15:52:00
9:11 AM,37.4,21.2,52,29.91,10.0,NNW,23.0,31.1,N/A,,Clear,330,2014-02-28 16:11:00
9:32 AM,39.2,21.2,49,29.92,10.0,NW,19.6,26.5,N/A,,Clear,310,2014-02-28 16:32:00
9:51 AM,39.2,21.2,49,29.93,10.0,NW,16.1,25.3,N/A,,Clear,310,2014-02-28 16:51:00
10:12 AM,41.0,19.4,42,29.94,10.0,NW,21.9,27.6,N/A,,Clear,310,2014-02-28 17:12:00
10:32 AM,41.0,17.6,39,29.94,10.0,WNW,21.9,29.9,N/A,,Clear,290,2014-02-28 17:32:00
10:52 AM,42.8,17.6,36,29.94,10.0,NW,15.0,23.0,N/A,,Clear,310,2014-02-28 17:52:00
11:11 AM,42.8,15.8,34,29.94,10.0,NW,16.1,20.7,N/A,,Clear,310,2014-02-28 18:11:00
11:32 AM,42.8,15.8,34,29.94,10.0,NW,12.7,-,N/A,,Clear,310,2014-02-28 18:32:00
11:51 AM,44.6,14.0,29,29.93,10.0,WNW,15.0,20.7,N/A,,Clear,300,2014-02-28 18:51:00
12:11 PM,44.6,15.8,31,29.92,10.0,NW,10.4,19.6,N/A,,Clear,310,2014-02-28 19:11:00
12:32 PM,44.6,15.8,31,29.91,10.0,WNW,10.4,-,N/A,,Clear,290,2014-02-28 19:32:00
12:52 PM,44.6,15.8,31,29.91,10.0,SSW,6.9,-,N/A,,Clear,210,2014-02-28 19:52:00
1:12 PM,44.6,19.4,37,29.90,10.0,SSW,4.6,-,N/A,,Scattered Clouds,200,2014-02-28 20:12:00
1:32 PM,44.6,17.6,34,29.90,10.0,NNW,4.6,-,N/A,,Scattered Clouds,330,2014-02-28 20:32:00
1:52 PM,44.6,17.6,34,29.90,10.0,WSW,5.8,-,N/A,,Mostly Cloudy,250,2014-02-28 20:52:00
2:12 PM,44.6,19.4,37,29.89,10.0,SSW,4.6,-,N/A,,Overcast,210,2014-02-28 21:12:00
2:31 PM,44.6,19.4,37,29.90,10.0,WSW,4.6,-,N/A,,Overcast,250,2014-02-28 21:31:00
2:51 PM,44.6,17.6,34,29.89,10.0,NW,15.0,24.2,N/A,,Overcast,310,2014-02-28 21:51:00
3:12 PM,48.2,17.6,30,29.89,10.0,NNW,17.3,24.2,N/A,,Mostly Cloudy,330,2014-02-28 22:12:00
3:32 PM,46.4,19.4,34,29.90,10.0,NNW,15.0,25.3,N/A,,Scattered Clouds,330,2014-02-28 22:32:00
3:52 PM,44.6,19.4,37,29.90,10.0,NW,21.9,28.8,N/A,,Clear,320,2014-02-28 22:52:00
4:12 PM,44.6,21.2,39,29.90,10.0,NW,17.3,-,N/A,,Scattered Clouds,320,2014-02-28 23:12:00
4:32 PM,42.8,21.2,42,29.90,10.0,NW,12.7,17.3,N/A,,Clear,310,2014-02-28 23:32:00
4:52 PM,42.8,21.2,42,29.91,10.0,NW,18.4,24.2,N/A,,Mostly Cloudy,320,2014-02-28 23:52:00
5:12 PM,41.0,21.2,45,29.91,10.0,NW,10.4,17.3,N/A,,Scattered Clouds,320,2014-03-01 00:12:00
5:32 PM,39.2,21.2,49,29.91,10.0,NW,13.8,-,N/A,,Clear,320,2014-03-01 00:32:00
5:52 PM,37.4,21.2,52,29.90,10.0,NW,12.7,19.6,N/A,,Scattered Clouds,320,2014-03-01 00:52:00
6:12 PM,35.6,21.2,56,29.91,10.0,NW,6.9,-,N/A,,Clear,320,2014-03-01 01:12:00
6:32 PM,33.8,21.2,60,29.93,10.0,NW,6.9,-,N/A,,Clear,320,2014-03-01 01:32:00
6:52 PM,32.0,23.0,69,29.93,10.0,NNW,5.8,-,N/A,,Clear,340,2014-03-01 01:52:00
7:12 PM,33.8,23.0,65,29.93,10.0,NNW,8.1,-,N/A,,Clear,330,2014-03-01 02:12:00
7:32 PM,32.0,23.0,69,29.93,10.0,NW,3.5,-,N/A,,Clear,320,2014-03-01 02:32:00
7:52 PM,32.0,23.0,69,29.93,10.0,NW,6.9,-,N/A,,Clear,320,2014-03-01 02:52:00
8:12 PM,32.0,23.0,69,29.93,10.0,NW,8.1,-,N/A,,Clear,310,2014-03-01 03:12:00
8:32 PM,32.0,23.0,69,29.93,10.0,North,6.9,-,N/A,,Clear,350,2014-03-01 03:32:00
8:52 PM,30.2,23.0,75,29.93,10.0,NW,5.8,-,N/A,,Clear,320,2014-03-01 03:52:00
9:12 PM,28.4,23.0,80,29.95,10.0,WNW,6.9,-,N/A,,Clear,300,2014-03-01 04:12:00
9:32 PM,28.4,23.0,80,29.94,10.0,WNW,6.9,-,N/A,,Clear,300,2014-03-01 04:32:00
9:51 PM,28.4,23.0,80,29.94,10.0,North,5.8,-,N/A,,Clear,350,2014-03-01 04:51:00
10:11 PM,30.2,23.0,75,29.94,10.0,North,5.8,-,N/A,,Clear,350,2014-03-01 05:11:00
10:31 PM,28.4,23.0,80,29.93,10.0,North,3.5,-,N/A,,Clear,360,2014-03-01 05:31:00
10:52 PM,26.6,23.0,86,29.93,10.0,Calm,Calm,-,N/A,,Clear,0,2014-03-01 05:52:00
11:11 PM,26.6,23.0,86,29.92,10.0,NE,5.8,-,N/A,,Clear,40,2014-03-01 06:11:00
11:32 PM,26.6,23.0,86,29.93,10.0,WNW,3.5,-,N/A,,Clear,290,2014-03-01 06:32:00
11:52 PM,26.6,23.0,86,29.92,10.0,NNW,5.8,-,N/A,,Clear,340,2014-03-01 06:52:00